• In Switzerland
  • List of Countries
  • For 7 days
  • Water Temperature
  • Satellite Maps
  • Weather Map
  • Weather Widgets
  • user-avatar
    Login

    Hourly Weather Yulara

    Today, 20 June, Wednesday

    Time Temperature Precipitation Wind Pressure Humidity
    00:00 +13°C° 0 mm 5 mps 722 mmHg 35%
    01:00 +12°C° 0 mm 4 mps 723 mmHg 40%
    02:00 +11°C° 0 mm 4 mps 723 mmHg 45%
    03:00 +10°C° 0 mm 4 mps 723 mmHg 52%
    04:00 +10°C° 0 mm 4 mps 723 mmHg 58%
    05:00 +8°C° 0 mm 4 mps 723 mmHg 64%
    06:00 +8°C° 0 mm 4 mps 723 mmHg 69%
    07:00 +9°C° 0 mm 5 mps 723 mmHg 68%
    08:00 +10°C° 0 mm 5 mps 724 mmHg 66%
    09:00 +13°C° 0 mm 6 mps 724 mmHg 64%
    10:00 +14°C° 0 mm 6 mps 724 mmHg 57%
    11:00 +16°C° 0 mm 5 mps 724 mmHg 51%
    12:00 +17°C° 0 mm 5 mps 724 mmHg 44%
    13:00 +19°C° 0 mm 5 mps 723 mmHg 41%
    14:00 +19°C° 0 mm 5 mps 723 mmHg 38%
    15:00 +20°C° 0 mm 5 mps 723 mmHg 34%
    16:00 +18°C° 0 mm 4 mps 723 mmHg 36%
    17:00 +17°C° 0 mm 4 mps 723 mmHg 37%
    18:00 +15°C° 0 mm 4 mps 723 mmHg 38%
    19:00 +14°C° 0 mm 5 mps 723 mmHg 38%
    20:00 +13°C° 0 mm 5 mps 723 mmHg 38%
    21:00 +12°C° 0 mm 5 mps 724 mmHg 38%
    22:00 +10°C° 0 mm 5 mps 724 mmHg 40%
    23:00 +9°C° 0 mm 5 mps 724 mmHg 42%

    Tomorrow, 21 June, Thursday

    Time Temperature Precipitation Wind Pressure Humidity
    00:00 +9°C° 0 mm 5 mps 724 mmHg 44%
    01:00 +8°C° 0 mm 4 mps 724 mmHg 49%
    02:00 +8°C° 0 mm 4 mps 724 mmHg 54%
    03:00 +7°C° 0 mm 4 mps 724 mmHg 60%
    04:00 +7°C° 0 mm 4 mps 724 mmHg 64%
    05:00 +6°C° 0 mm 4 mps 724 mmHg 69%
    06:00 +6°C° 0 mm 4 mps 724 mmHg 74%
    07:00 +7°C° 0 mm 4 mps 725 mmHg 70%
    08:00 +10°C° 0 mm 4 mps 725 mmHg 66%
    09:00 +10°C° 0 mm 5 mps 726 mmHg 62%
    10:00 +13°C° 0 mm 5 mps 725 mmHg 54%
    11:00 +14°C° 0 mm 4 mps 725 mmHg 46%
    12:00 +17°C° 0 mm 4 mps 724 mmHg 38%
    13:00 +18°C° 0 mm 4 mps 724 mmHg 36%
    14:00 +18°C° 0 mm 4 mps 723 mmHg 33%
    15:00 +19°C° 0 mm 4 mps 723 mmHg 30%
    16:00 +18°C° 0 mm 4 mps 723 mmHg 34%
    17:00 +15°C° 0 mm 4 mps 723 mmHg 37%
    18:00 +14°C° 0 mm 3 mps 723 mmHg 40%
    19:00 +13°C° 0 mm 3 mps 723 mmHg 44%
    20:00 +12°C° 0 mm 4 mps 724 mmHg 47%
    21:00 +12°C° 0 mm 4 mps 724 mmHg 50%
    22:00 +11°C° 0 mm 4 mps 724 mmHg 53%
    23:00 +10°C° 0 mm 4 mps 724 mmHg 56%

    Day after tomorrow, 22 June, Friday

    Time Temperature Precipitation Wind Pressure Humidity
    00:00 +10°C° 0 mm 3 mps 724 mmHg 59%
    01:00 +9°C° 0 mm 3 mps 724 mmHg 61%
    02:00 +9°C° 0 mm 3 mps 724 mmHg 64%
    03:00 +8°C° 0 mm 3 mps 724 mmHg 66%
    04:00 +8°C° 0 mm 3 mps 724 mmHg 68%
    05:00 +8°C° 0 mm 3 mps 724 mmHg 70%
    06:00 +7°C° 0 mm 3 mps 724 mmHg 72%
    07:00 +8°C° 0 mm 4 mps 724 mmHg 63%
    08:00 +10°C° 0 mm 4 mps 725 mmHg 55%
    09:00 +10°C° 0 mm 5 mps 725 mmHg 46%
    10:00 +13°C° 0 mm 5 mps 725 mmHg 41%
    11:00 +15°C° 0 mm 5 mps 725 mmHg 35%
    12:00 +17°C° 0 mm 4 mps 725 mmHg 29%
    13:00 +18°C° 0 mm 4 mps 724 mmHg 27%
    14:00 +18°C° 0 mm 4 mps 724 mmHg 26%
    15:00 +19°C° 0 mm 4 mps 723 mmHg 24%
    16:00 +17°C° 0 mm 4 mps 723 mmHg 27%
    17:00 +15°C° 0 mm 4 mps 723 mmHg 30%
    18:00 +13°C° 0 mm 3 mps 723 mmHg 33%
    19:00 +13°C° 0 mm 4 mps 724 mmHg 37%
    20:00 +12°C° 0 mm 4 mps 724 mmHg 41%
    21:00 +11°C° 0 mm 4 mps 725 mmHg 45%
    22:00 +10°C° 0 mm 4 mps 725 mmHg 49%
    23:00 +10°C° 0 mm 4 mps 725 mmHg 54%

    23 June, Saturday

    Time Temperature Precipitation Wind Pressure Humidity
    00:00 +8°C° 0 mm 4 mps 725 mmHg 58%
    01:00 +8°C° 0 mm 4 mps 725 mmHg 60%
    02:00 +7°C° 0 mm 4 mps 725 mmHg 62%
    03:00 +7°C° 0 mm 4 mps 724 mmHg 64%
    04:00 +7°C° 0 mm 4 mps 724 mmHg 66%
    05:00 +6°C° 0 mm 4 mps 725 mmHg 67%
    06:00 +6°C° 0 mm 4 mps 725 mmHg 68%
    07:00 +7°C° 0 mm 4 mps 725 mmHg 62%
    08:00 +10°C° 0 mm 4 mps 726 mmHg 55%
    09:00 +10°C° 0 mm 5 mps 726 mmHg 48%
    10:00 +13°C° 0 mm 5 mps 726 mmHg 43%
    11:00 +15°C° 0 mm 5 mps 726 mmHg 37%
    12:00 +16°C° 0 mm 6 mps 725 mmHg 32%
    13:00 +17°C° 0 mm 6 mps 725 mmHg 30%
    14:00 +17°C° 0 mm 6 mps 724 mmHg 29%
    15:00 +19°C° 0 mm 6 mps 723 mmHg 27%
    16:00 +16°C° 0 mm 5 mps 724 mmHg 30%
    17:00 +15°C° 0 mm 5 mps 724 mmHg 33%
    18:00 +14°C° 0 mm 4 mps 724 mmHg 36%
    19:00 +13°C° 0 mm 4 mps 724 mmHg 39%
    20:00 +12°C° 0 mm 4 mps 725 mmHg 42%
    21:00 +11°C° 0 mm 4 mps 725 mmHg 45%
    22:00 +10°C° 0 mm 4 mps 725 mmHg 48%
    23:00 +10°C° 0 mm 4 mps 725 mmHg 51%

    24 June, Sunday

    Time Temperature Precipitation Wind Pressure Humidity
    00:00 +8°C° 0 mm 4 mps 725 mmHg 54%
    01:00 +8°C° 0 mm 4 mps 725 mmHg 56%
    02:00 +7°C° 0 mm 4 mps 725 mmHg 59%
    03:00 +7°C° 0 mm 4 mps 725 mmHg 62%
    04:00 +6°C° 0 mm 4 mps 725 mmHg 63%
    05:00 +6°C° 0 mm 4 mps 725 mmHg 65%
    06:00 +6°C° 0 mm 4 mps 725 mmHg 66%
    07:00 +7°C° 0 mm 4 mps 726 mmHg 60%
    08:00 +10°C° 0 mm 4 mps 726 mmHg 54%
    09:00 +10°C° 0 mm 5 mps 726 mmHg 47%
    10:00 +13°C° 0 mm 5 mps 726 mmHg 42%
    11:00 +14°C° 0 mm 5 mps 725 mmHg 37%
    12:00 +16°C° 0 mm 5 mps 725 mmHg 31%
    13:00 +16°C° 0 mm 5 mps 724 mmHg 29%
    14:00 +17°C° 0 mm 5 mps 724 mmHg 27%
    15:00 +19°C° 0 mm 5 mps 723 mmHg 25%
    16:00 +16°C° 0 mm 5 mps 723 mmHg 28%
    17:00 +15°C° 0 mm 4 mps 723 mmHg 30%
    18:00 +13°C° 0 mm 4 mps 724 mmHg 33%
    19:00 +12°C° 0 mm 4 mps 724 mmHg 36%
    20:00 +12°C° 0 mm 4 mps 725 mmHg 38%
    21:00 +11°C° 0 mm 4 mps 725 mmHg 40%
    22:00 +10°C° 0 mm 4 mps 725 mmHg 42%
    23:00 +10°C° 0 mm 4 mps 725 mmHg 44%

    25 June, Monday

    Time Temperature Precipitation Wind Pressure Humidity
    00:00 +8°C° 0 mm 4 mps 725 mmHg 45%
    01:00 +8°C° 0 mm 4 mps 725 mmHg 46%
    02:00 +7°C° 0 mm 4 mps 725 mmHg 47%
    03:00 +7°C° 0 mm 4 mps 725 mmHg 47%
    04:00 +7°C° 0 mm 4 mps 725 mmHg 48%
    05:00 +7°C° 0 mm 4 mps 725 mmHg 49%
    06:00 +6°C° 0 mm 4 mps 725 mmHg 50%
    07:00 +8°C° 0 mm 5 mps 726 mmHg 47%
    08:00 +10°C° 0 mm 6 mps 726 mmHg 44%
    09:00 +11°C° 0 mm 6 mps 726 mmHg 40%
    10:00 +14°C° 0 mm 6 mps 726 mmHg 37%
    11:00 +15°C° 0 mm 6 mps 726 mmHg 33%
    12:00 +17°C° 0 mm 6 mps 725 mmHg 30%
    13:00 +19°C° 0 mm 6 mps 725 mmHg 28%
    14:00 +19°C° 0 mm 6 mps 724 mmHg 27%
    15:00 +20°C° 0 mm 6 mps 724 mmHg 25%
    16:00 +17°C° 0 mm 5 mps 724 mmHg 28%
    17:00 +16°C° 0 mm 5 mps 725 mmHg 32%
    18:00 +14°C° 0 mm 5 mps 725 mmHg 35%
    19:00 +13°C° 0 mm 5 mps 725 mmHg 40%
    20:00 +12°C° 0 mm 5 mps 726 mmHg 45%
    21:00 +10°C° 0 mm 5 mps 727 mmHg 50%
    22:00 +9°C° 0 mm 5 mps 727 mmHg 55%
    23:00 +10°C° 0 mm 4 mps 726 mmHg 60%
    Show more